(44) Nysa
ephemeris date magn radius delta ra dec elong phase
Today30 May 202511.62.266 AU3.210 AU03h16m+15°26'17.8°7.9°
Opposition23 Jan 20268.62.062 AU1.078 AU08h21m+18°24'179.0°0.5°
(44) Nysa - 2025-05-30
astro.vanbuitenen.nl


 
-1 year
-1 month
-1 day
Now
+1 day
+1 month
+1 year

The interactive orbit chart above shows the body's path through the solar system and its position at the given date. Green and blue lines are shown perpendicular to the ecliptic plane: Green if the path is above the ecliptic plane, blue if it is below. (Left-click and drag to rotate the view; Right-click and drag to move the view; Use scroll wheel to zoom in our out.)

The orbital elements of Nysa are:

            e (Eccentricity)                : 0.1496909
            a (Semimajor axis)              : 2.4222286
            i (Inclination)                 : 3.71221
            Ω (Longitude of ascending node) : 131.48659
            ω (Argument of perihelion)      : 344.12061
            M (Mean anomaly)                : 296.70957
            Epoch                           : 2025 May 05

            L (Longitude of perihelion)     : 115.63884
            B (Latitude of perihelion)      : -1.01505
            P (Orbital period in years)     : 3.77            
        

The light curve chart below shows the estimated development of the minor planet's magnitude.


The all-sky chart below shows the path of the minor planet over the same period as the light curve. The current position is marked yellow.





The following chart shows the path of the minor planet in the next few days. The field of view is optimized for (~10x50) binoculars and finderscopes. A more printer-friendly version of the same chart can be found below.




Ephemerides:
Date       Time       RA (2000)    DEC (2000)    delta   radius  elong  phase   PA    magn
2025-05-30 00:00 UT   03 16 38.6   +15 26 47     3.210    2.266   17.8    7.9   247   11.6 
2025-05-30 02:15 UT   03 16 49.9   +15 27 31     3.209    2.266   17.9    7.9   247   11.6 
2025-05-31 00:00 UT   03 18 39.1   +15 34 27     3.205    2.265   18.3    8.1   247   11.6 
2025-06-01 00:00 UT   03 20 39.7   +15 42 02     3.200    2.263   18.7    8.3   247   11.6 
2025-06-02 00:00 UT   03 22 40.5   +15 49 33     3.195    2.261   19.2    8.5   248   11.6 
2025-06-03 00:00 UT   03 24 41.5   +15 56 58     3.189    2.260   19.6    8.7   248   11.6 
2025-06-04 00:00 UT   03 26 42.6   +16 04 19     3.184    2.258   20.1    8.9   249   11.6 
2025-06-05 00:00 UT   03 28 44.0   +16 11 35     3.178    2.257   20.5    9.1   249   11.6 
2025-06-06 00:00 UT   03 30 45.5   +16 18 46     3.173    2.255   21.0    9.3   249   11.6 
2025-06-07 00:00 UT   03 32 47.2   +16 25 51     3.167    2.253   21.4    9.5   249   11.6 
2025-06-08 00:00 UT   03 34 49.1   +16 32 52     3.162    2.252   21.9    9.7   250   11.6 
2025-06-09 00:00 UT   03 36 51.1   +16 39 48     3.156    2.250   22.3    9.9   250   11.6 
2025-06-10 00:00 UT   03 38 53.3   +16 46 38     3.150    2.249   22.8   10.1   250   11.7 
2025-06-11 00:00 UT   03 40 55.7   +16 53 23     3.144    2.247   23.2   10.3   251   11.7 
2025-06-12 00:00 UT   03 42 58.3   +17 00 04     3.138    2.246   23.7   10.5   251   11.7 
2025-06-13 00:00 UT   03 45 01.0   +17 06 38     3.132    2.244   24.1   10.7   251   11.7 
2025-06-14 00:00 UT   03 47 03.9   +17 13 08     3.126    2.242   24.6   10.9   252   11.7 
2025-06-15 00:00 UT   03 49 07.0   +17 19 32     3.119    2.241   25.0   11.1   252   11.7 


    Terminology:
            
    delta:  distance between minor planet and earth in AU
    radius: distance between minor planet and sun in AU
    magn:   magnitude (brightness) estimate    
    ra:     right ascension in hours (24h = 360deg)
    dec:    declination in degrees
    elong:  elongation in degrees (angle sun-earth-minor planet)    
    phase:  phase angle in degrees (angle sun-minor planet-earth)        
    AU:     Astronomical Unit (mean distance between earth and sun: 149597870.7 km
    

Orbital elements provided by the MPC (Minor Planet Center).
Calculations by a modified version of AAPlus, a C# implementation of the AA+ project by PJ Naughter from the algorithms presented in the book "Astronomical Algorithms" by Jean Meeus.
NGC2000 dso catalog and star labels from VizieR as provided by the Strasbourg astronomical Data Center.
Tycho2 catalog from the ESO archive.